Location: Aldenham
(51.6667°N, 0.3500°W)
Time: 07:23:45
(UTC+00:00)

A-11 Canister half - Pass Details

Date: 22 February 2026
Orbit: 1512 x 1687 km, 47.2° (Epoch: 8 March)

Event Time Altitude Azimuth Distance (km) Brightness Sun altitude
Rises 03:34:05 0° 286° (WNW) 4,870 - -32.2°
Reaches altitude 10° 03:38:43 10° 268° (W) 3,846 - -31.6°
Maximum altitude 03:44:13 17° 233° (SW) 3,285 - -30.8°
Drops below altitude 10° 03:49:38 10° 198° (SSW) 3,756 - -30.0°
Exits shadow 03:53:52 - 180° (S) 4,642 11.3 -29.4°
Sets 03:54:07 0° 179° (S) 4,704 11.4 -29.4°
